User: anonymous   Login
Location: Unspecified
(0.0000°N, 0.0000°E)
Time: 15:18:32
(UTC+00:00)
Language:

TerraSAR-X - Orbit

View from above orbital plane
View from above orbital plane
View from above satellite
View from above satellite

Ground track
Ground track

The orbit data is extracted from the following two-line orbital elements,

1 31698U 07026A   21268.26291885 -.00000774  00000-0 -33691-4 0  9998
2 31698  97.4455 274.6632 0002019  84.9441  10.9348 15.19144981791864
Epoch (UTC): 25 September 2021 06:18:36
Eccentricity: 0.0002019
inclination: 97.4455°
perigee height: 507 km
apogee height: 510 km
right ascension of ascending node: 274.6632°
argument of perigee: 84.9441°
revolutions per day: 15.19144981
mean anomaly at epoch: 10.9348°
orbit number at epoch: 79186

The dashed part of the orbit path shows where the satellite is in the earth's shadow,  

DLR